User: anonymous   Login
Location: Lansingburgh
(42.7845°N, 73.6696°W)
Time: 12:31:38
(UTC+00:00)
Language:

Nadezhda 3 Rocket - Orbit

View from above orbital plane
View from above orbital plane
View from above satellite
View from above satellite

Ground track
Ground track

The orbit data is extracted from the following two-line orbital elements,

1 21153U 91019B   20094.74409007 +.00000058 +00000-0 +43806-4 0  9996
2 21153 082.9270 162.5500 0029489 173.1269 336.8286 13.75946340458872
Epoch (UTC): 03 April 2020 17:51:29
Eccentricity: 0.0029489
inclination: 82.9270°
perigee height: 956 km
apogee height: 1000 km
right ascension of ascending node: 162.5500°
argument of perigee: 173.1269°
revolutions per day: 13.75946340
mean anomaly at epoch: 336.8286°
orbit number at epoch: 45887

The dashed part of the orbit path shows where the satellite is in the earth's shadow,  

DLR